Location: Newark
(54.3386°S, 169.8415°W)
Time: 12:15:10
(UTC+00:00)

Transit 2A Rocket - Pass Details

Date: 25 October 2019
Orbit: 594 x 909 km, 66.7° (Epoch: 18 November)

Event Time Altitude Azimuth Distance (km) Brightness Sun altitude
Rises 11:05:22 0° 223° (SW) 3,538 9.1 -23.6°
Reaches altitude 10° 11:07:53 10° 223° (SW) 2,612 8.3 -23.6°
Maximum altitude 11:14:02 80° 308° (NW) 940 5.3 -23.5°
Enters shadow 11:15:48 49° 25° (NNE) 1,172 5.5 -23.5°
Drops below altitude 10° 11:20:06 10° 34° (NNE) 2,577 - -23.5°
Sets 11:22:34 0° 34° (NE) 3,488 - -23.5°
